SR5NLK-1 Weather Reports


time (UTC)temp
F
wind
direction
speed
knots
gust
knots
rain 1hr
in
rain 24hr
in
rain mn
in
humidity
%
barometer
mb
20260502170506 78 292 2.6 6.1 0.00 0.00 0.00 24 1007.3
20260502164006 79 202 2.6 7.8 0.00 0.00 0.00 24 1004.1
20260502163605 79 270 7.0 9.6 0.00 0.00 0.00 24 1015.1
20260502163506 79 270 3.5 9.6 0.00 0.00 0.00 24 997.9
20260502163006 79 247 4.3 7.8 0.00 0.00 0.00 24 1042.8
20260502162506 79 270 5.2 7.8 0.00 0.00 0.00 24 968.6
20260502162012 80 270 3.5 6.1 0.00 0.00 0.00 24 1039.7
20260502162006 80 270 3.5 6.1 0.00 0.00 0.00 24 1039.7
20260502161506 80 247 3.5 7.8 0.00 0.00 0.00 24 1090.9
20260502161006 80 247 7.0 8.7 0.00 0.00 0.00 24 1013.5
20260502160506 80 270 6.1 10.4 0.00 0.00 0.00 24 968.6
20260502160305 81 270 3.5 10.4 0.00 0.00 0.00 24 1056.1
20260502152006 80 292 0.0 8.7 0.00 0.00 0.00 23 1007.3
20260502151506 80 0 1.7 3.5 0.00 0.00 0.00 23 1019.4
20260502151006 80 0 1.7 4.3 0.00 0.00 0.00 22 997.9
20260502150506 81 337 3.5 8.7 0.00 0.00 0.00 22 1046.0
20260502130506 84 247 3.5 6.1 0.00 0.00 0.00 23 1075.3
20260502123506 82 292 8.7 8.7 0.00 0.00 0.00 24 1037.5
20260502123006 82 202 0.0 13.0 0.00 0.00 0.00 24 1042.8
20260502122506 82 225 0.9 10.4 0.00 0.00 0.00 25 1087.8
20260502122006 82 157 5.2 9.6 0.00 0.00 0.00 24 1033.3
20260502121506 82 270 1.7 7.8 0.00 0.00 0.00 23 1094.1
20260502121205 82 202 1.7 7.8 0.00 0.00 0.00 23 1030.2
20260502121006 82 270 5.2 5.2 0.00 0.00 0.00 23 1087.8
20260502120506 82 202 1.7 7.8 0.00 0.00 0.00 25 1062.6
20260502115506 83 337 1.7 7.8 0.00 0.00 0.00 24 1075.3
20260502115006 83 157 1.7 8.7 0.00 0.00 0.00 25 1042.8
20260502114506 83 202 8.7 8.7 0.00 0.00 0.00 25 1039.7
20260502114006 82 270 6.1 7.0 0.00 0.00 0.00 24 1078.3
20260502113905 82 202 7.0 7.0 0.00 0.00 0.00 24 1087.8
20260502113506 82 202 2.6 5.2 0.00 0.00 0.00 24 1037.5
20260502113006 81 270 1.7 4.3 0.00 0.00 0.00 24 1050.1
20260502112506 82 315 2.6 8.7 0.00 0.00 0.00 24 1065.8
20260502112006 82 292 0.9 4.3 0.00 0.00 0.00 24 991.6
20260502111506 82 247 4.3 7.8 0.00 0.00 0.00 25 1059.5
20260502111006 82 157 1.7 8.7 0.00 0.00 0.00 25 1069.0
20260502110605 81 202 0.9 11.3 0.00 0.00 0.00 25 1039.7
20260502110506 82 225 0.9 11.3 0.00 0.00 0.00 25 1075.2
20260502110006 81 292 0.9 10.4 0.00 0.00 0.00 26 1084.6
20260502105506 80 202 3.5 7.0 0.00 0.00 0.00 26 1075.2
20260502105006 79 270 8.7 9.6 0.00 0.00 0.00 27 1046.9
20260502104506 79 292 1.7 13.0 0.00 0.00 0.00 27 1059.5
20260502104006 78 202 8.7 12.2 0.00 0.00 0.00 26 1036.6
20260502103506 78 292 3.5 8.7 0.00 0.00 0.00 26 1053.2
20260502103305 78 247 1.7 8.7 0.00 0.00 0.00 26 1065.8
20260502103007 78 292 3.5 10.4 0.00 0.00 0.00 26 1053.2
20260502102506 79 292 9.6 9.6 0.00 0.00 0.00 26 1059.5
20260502102006 79 157 0.9 8.7 0.00 0.00 0.00 27 1065.8
20260502101506 79 270 8.7 11.3 0.00 0.00 0.00 27 1053.2
20260502101006 78 202 2.6 8.7 0.00 0.00 0.00 27 1065.8
20260502100506 78 337 1.7 5.2 0.00 0.00 0.00 27 1062.7
20260502091506 78 202 3.5 14.8 0.00 0.00 0.00 27 1020.8
20260502091007 78 225 4.3 9.6 0.00 0.00 0.00 27 1053.2
20260502090507 79 247 9.6 12.2 0.00 0.00 0.00 27 1024.0
20260502071506 90 225 7.0 7.0 0.00 0.00 0.00 25 1072.1
20260502071007 90 202 2.6 7.0 0.00 0.00 0.00 25 1075.3
20260502070507 89 202 2.6 6.1 0.00 0.00 0.00 26 1062.7
20260502070007 88 247 5.2 5.2 0.00 0.00 0.00 26 1062.7
20260502065507 87 225 2.6 7.8 0.00 0.00 0.00 26 1050.1
20260502065008 87 225 4.3 8.7 0.00 0.00 0.00 26 1053.2
20260502064507 88 202 5.2 8.7 0.00 0.00 0.00 26 1072.1
20260502064206 88 202 7.8 7.8 0.00 0.00 0.00 27 1056.4
20260502064007 87 180 3.5 5.2 0.00 0.00 0.00 27 1069.0
20260502063507 88 270 4.3 6.1 0.00 0.00 0.00 27 1027.1
20260502063007 88 270 3.5 6.1 0.00 0.00 0.00 27 1068.9
20260502062515 88 180 3.5 7.0 0.00 0.00 0.00 27
20260502062507 88 180 3.5 7.0 0.00 0.00 0.00 27 1062.7
20260502062007 88 202 4.3 6.1 0.00 0.00 0.00 27 1065.8
20260502061507 88 157 2.6 5.2 0.00 0.00 0.00 27 1068.9
20260502061007 88 202 5.2 5.2 0.00 0.00 0.00 28 1062.7
20260502060906 88 202 3.5 3.5 0.00 0.00 0.00 28 1069.0
20260502060507 87 157 1.7 2.6 0.00 0.00 0.00 28 1062.7
20260502060007 85 180 1.7 2.6 0.00 0.00 0.00 29 1062.7
20260502055507 85 180 0.0 2.6 0.00 0.00 0.00 29 1069.0
20260502055007 84 225 1.7 2.6 0.00 0.00 0.00 30 1050.1
20260502054507 84 247 1.7 2.6 0.00 0.00 0.00 30 1068.9
20260502054007 83 202 2.6 3.5 0.00 0.00 0.00 30 1026.0
20260502053606 83 157 2.6 2.6 0.00 0.00 0.00 31 1062.7
20260502053515 83 247 1.7 3.5 0.00 0.00 0.00 31 1056.4
20260502053507 83 247 1.7 3.5 0.00 0.00 0.00 31 1056.4
20260502053007 82 180 0.0 3.5 0.00 0.00 0.00 31 1040.6
20260502052507 82 157 1.7 6.1 0.00 0.00 0.00 31 1065.8
20260502052007 81 225 2.6 3.5 0.00 0.00 0.00 33 1065.8
20260502051507 80 180 1.7 4.3 0.00 0.00 0.00 34 1037.4
20260502051007 80 202 0.9 3.5 0.00 0.00 0.00 35 1069.0
20260502050507 79 202 0.9 3.5 0.00 0.00 0.00 36 1053.2
20260502050306 78 180 0.0 3.5 0.00 0.00 0.00 37 1037.4
20260502050007 77 157 1.7 3.5 0.00 0.00 0.00 37 1018.5
20260502045507 76 180 1.7 1.7 0.00 0.00 0.00 39 1047.0
20260502045007 75 112 0.0 1.7 0.00 0.00 0.00 40 1021.7
20260502044507 73 180 0.9 2.6 0.00 0.00 0.00 42 1059.5
20260502044007 71 157 0.0 0.9 0.00 0.00 0.00 44 1045.2
20260502043507 69 90 0.0 0.9 0.00 0.00 0.00 46 1050.1
20260502043006 66 112 0.0 1.7 0.00 0.00 0.00 49 1053.2
20260502042507 64 157 1.7 1.7 0.00 0.00 0.00 52 1043.8
20260502042007 62 135 0.0 0.9 0.00 0.00 0.00 56 1034.3
20260502041507 59 135 0.0 0.9 0.00 0.00 0.00 60 1034.3
20260502041007 57 112 0.0 0.9 0.00 0.00 0.00 66 1046.9
20260502040507 54 112 0.0 0.9 0.00 0.00 0.00 70 1015.3
20260502040007 52 112 0.9 0.9 0.00 0.00 0.00 75 1026.4
20260502035706 50 112 0.0 0.0 0.00 0.00 0.00 77 1037.5
20260502035507 49 112 0.0 0.9 0.00 0.00 0.00 77 1034.3
20260502035007 47 67 0.0 0.9 0.00 0.00 0.00 77 1021.7
20260502034507 44 112 0.9 1.7 0.00 0.00 0.00 75 1024.8
20260502034007 43 112 0.0 0.0 0.00 0.00 0.00 74 1031.1
20260502033507 42 135 0.0 0.9 0.00 0.00 0.00 74 1037.5
20260502033007 42 112 0.0 0.0 0.00 0.00 0.00 74 1012.2
20260502032507 42 112 0.0 0.0 0.00 0.00 0.00 74 1046.9
20260502032406 42 112 0.0 0.0 0.00 0.00 0.00 74 1034.3
20260502032007 42 90 0.0 0.0 0.00 0.00 0.00 74 1024.9
20260502031507 41 135 0.0 0.0 0.00 0.00 0.00 74 1040.6
20260502031007 41 135 0.0 0.0 0.00 0.00 0.00 74 1043.8
20260502030507 41 67 0.0 0.0 0.00 0.00 0.00 74 1037.4
20260502030007 41 157 0.0 0.0 0.00 0.00 0.00 74 1043.8
20260502025507 41 112 0.0 0.0 0.00 0.00 0.00 74 1043.8
20260502025106 41 112 0.0 0.0 0.00 0.00 0.00 74 1034.3
20260502025007 41 112 0.0 0.0 0.00 0.00 0.00 73 1028.0
20260502024507 42 112 0.0 0.9 0.00 0.00 0.00 73 1040.6
20260502024007 42 112 0.0 0.0 0.00 0.00 0.00 73 1040.6
20260502023507 42 112 0.0 0.9 0.00 0.00 0.00 74 1028.0
20260502023007 42 112 0.0 0.0 0.00 0.00 0.00 74 1037.4
20260502022507 42 135 0.0 0.0 0.00 0.00 0.00 74 1034.3
20260502022007 42 135 0.0 0.0 0.00 0.00 0.00 74 1015.4
20260502021806 42 135 0.0 0.0 0.00 0.00 0.00 74 1043.8
20260502021507 42 135 0.0 0.0 0.00 0.00 0.00 74 1053.2
20260502021007 42 112 0.0 1.7 0.00 0.00 0.00 74 1056.4
20260502020507 42 135 0.0 0.0 0.00 0.00 0.00 74 1053.2
20260502020007 42 135 0.0 0.0 0.00 0.00 0.00 74 1038.2
20260502015507 42 135 0.0 0.9 0.00 0.00 0.00 74 1056.4
20260502015007 42 135 0.0 0.9 0.00 0.00 0.00 74 1053.2
20260502014506 42 112 0.0 0.0 0.00 0.00 0.00 74 1018.5
20260502014007 42 112 0.0 0.0 0.00 0.00 0.00 74 1050.1
20260502013507 42 135 0.0 0.0 0.00 0.00 0.00 73 1059.5
20260502013007 42 157 0.0 0.0 0.00 0.00 0.00 73 1046.9
20260502012507 42 157 0.0 0.0 0.00 0.00 0.00 72 1056.4
20260502012007 42 157 0.0 0.0 0.00 0.00 0.00 72 1053.2
20260502011507 43 225 0.0 0.0 0.00 0.00 0.00 72 1043.8
20260502011206 43 225 0.0 0.0 0.00 0.00 0.00 72 1062.7
20260502011007 43 225 0.0 0.0 0.00 0.00 0.00 72 1046.9
20260502010507 43 270 0.0 0.0 0.00 0.00 0.00 72 1037.5
20260502010007 43 270 0.0 0.0 0.00 0.00 0.00 71 1050.1
20260502005507 43 270 0.0 0.0 0.00 0.00 0.00 71 1043.8
20260502005012 43 270 0.0 0.0 0.00 0.00 0.00 70 1072.1
20260502005007 43 270 0.0 0.0 0.00 0.00 0.00 70 1072.1
20260502004507 44 270 0.0 0.0 0.00 0.00 0.00 70 1034.3
20260502004007 44 292 0.0 0.0 0.00 0.00 0.00 70 1050.1
20260502003906 44 292 0.0 0.0 0.00 0.00 0.00 70 1059.5
20260502003507 44 270 0.0 0.0 0.00 0.00 0.00 70 1040.6
20260502003007 44 292 0.0 0.0 0.00 0.00 0.00 69 1072.1
20260502002515 44 292 0.0 0.0 0.00 0.00 0.00 69 1046.9
20260502002507 44 292 0.0 0.0 0.00 0.00 0.00 69 1046.9
20260502002008 44 270 0.0 0.0 0.00 0.00 0.00 68 1059.5
20260502001507 44 292 0.0 0.0 0.00 0.00 0.00 67 1062.7
20260502001008 44 247 0.0 0.0 0.00 0.00 0.00 67 1056.3
20260502000606 45 292 0.0 0.0 0.00 0.00 0.00 67 1065.7
20260502000507 45 315 0.0 0.0 0.00 0.00 0.00 67 1072.1
20260502000008 45 315 0.0 0.0 0.00 0.00 0.00 66 1050.1
20260501235507 45 292 0.0 0.0 0.00 0.00 0.00 66 1040.6
20260501235008 46 270 0.0 0.0 0.00 0.00 0.00 66 1059.6
20260501234508 46 157 0.0 0.0 0.00 0.00 0.00 66 1065.8
20260501234008 46 292 0.0 0.0 0.00 0.00 0.00 66 1043.8
20260501233508 46 157 0.0 0.0 0.00 0.00 0.00 66 1056.4
20260501233307 46 157 0.0 0.0 0.00 0.00 0.00 66 1053.2
20260501233008 46 135 0.0 0.9 0.00 0.00 0.00 66 1056.4
20260501232508 46 157 0.9 0.9 0.00 0.00 0.00 66 1075.2
20260501232008 47 135 0.0 0.0 0.00 0.00 0.00 66 1056.4
20260501231516 47 135 0.0 0.9 0.00 0.00 0.00 66 1065.8
20260501231508 47 135 0.0 0.9 0.00 0.00 0.00 66 1065.8
20260501231008 47 112 0.0 0.9 0.00 0.00 0.00 66 1056.4
20260501230508 47 112 0.9 1.7 0.00 0.00 0.00 65 1059.5
20260501230014 47 135 1.7 1.7 0.00 0.00 0.00 65 1062.6
20260501230007 47 135 1.7 1.7 0.00 0.00 0.00 65 1062.6
20260501225508 47 112 0.0 1.7 0.00 0.00 0.00 65 1065.8
20260501225008 47 337 0.0 0.0 0.00 0.00 0.00 64 1068.9
20260501224508 47 247 0.0 0.0 0.00 0.00 0.00 64 1050.1
20260501224008 47 247 0.0 0.0 0.00 0.00 0.00 63 1059.5
20260501223508 48 270 0.0 0.0 0.00 0.00 0.00 63 1081.5
20260501223008 48 270 0.0 0.0 0.00 0.00 0.00 63 1056.3
20260501222707 48 292 0.0 0.0 0.00 0.00 0.00 63 1062.7
20260501222516 48 292 0.0 0.0 0.00 0.00 0.00 63
20260501222508 48 292 0.0 0.0 0.00 0.00 0.00 63 1062.6
20260501222008 48 292 0.0 0.0 0.00 0.00 0.00 62 1078.4
20260501221508 48 292 0.0 0.0 0.00 0.00 0.00 62 1059.5
20260501221008 48 270 0.0 0.0 0.00 0.00 0.00 61 1040.6
20260501220508 49 270 0.0 0.0 0.00 0.00 0.00 61 1059.5
20260501220008 49 292 0.0 0.0 0.00 0.00 0.00 60 1040.6
20260501215508 49 292 0.0 0.0 0.00 0.00 0.00 60 1050.1
20260501215407 49 292 0.0 0.0 0.00 0.00 0.00 60 1056.4
20260501215008 49 292 0.0 0.0 0.00 0.00 0.00 60 1040.6
20260501214508 50 292 0.0 0.0 0.00 0.00 0.00 60 1059.5
20260501214008 50 292 0.0 0.0 0.00 0.00 0.00 59 1053.2
20260501213508 50 292 0.0 0.0 0.00 0.00 0.00 59 1056.4
20260501213008 50 292 0.0 0.0 0.00 0.00 0.00 58 1065.8
20260501212508 50 292 0.0 0.0 0.00 0.00 0.00 58 1039.7
20260501212107 51 202 0.0 0.0 0.00 0.00 0.00 58 1075.2
20260501212008 51 202 0.0 0.0 0.00 0.00 0.00 58 1081.5
20260501211508 51 225 0.0 0.0 0.00 0.00 0.00 57 1069.0
20260501211008 51 112 0.0 0.0 0.00 0.00 0.00 57 1078.4
20260501210508 51 112 0.0 0.0 0.00 0.00 0.00 56 1069.0
20260501210008 51 112 0.0 0.0 0.00 0.00 0.00 56 1072.1
20260501205508 52 112 0.0 0.0 0.00 0.00 0.00 56 1068.9
20260501205008 52 112 0.0 0.0 0.00 0.00 0.00 55 1046.9
20260501204807 52 112 0.0 0.0 0.00 0.00 0.00 55 1072.0
20260501204514 52 112 0.0 0.0 0.00 0.00 0.00 55 1020.8
20260501204508 52 112 0.0 0.0 0.00 0.00 0.00 55 1020.8
20260501204008 52 112 0.0 0.0 0.00 0.00 0.00 54 1056.3
20260501203508 53 112 0.0 0.0 0.00 0.00 0.00 54 1053.2
20260501203008 53 112 0.0 0.0 0.00 0.00 0.00 53 1069.0
20260501202508 53 112 0.0 0.0 0.00 0.00 0.00 52 1062.7
20260501202008 53 112 0.0 0.0 0.00 0.00 0.00 52 1075.2
20260501201507 54 112 0.0 0.0 0.00 0.00 0.00 51 1065.8
20260501201008 54 112 0.0 0.0 0.00 0.00 0.00 51 1046.9
20260501200508 54 112 0.0 0.0 0.00 0.00 0.00 50 1065.8
20260501200008 55 157 0.0 0.0 0.00 0.00 0.00 50 1069.0
20260501195508 55 135 0.0 0.0 0.00 0.00 0.00 49 1068.9
20260501195008 56 135 0.0 0.0 0.00 0.00 0.00 49 1065.7
20260501194508 56 112 0.0 0.0 0.00 0.00 0.00 49 1068.9
20260501194207 56 112 0.0 0.0 0.00 0.00 0.00 48 1068.9
20260501194008 56 112 0.0 0.0 0.00 0.00 0.00 48 1062.6
20260501193508 57 112 0.0 0.0 0.00 0.00 0.00 48 1062.6
20260501193008 57 67 0.0 0.0 0.00 0.00 0.00 47 1020.8
20260501192508 57 337 0.0 0.0 0.00 0.00 0.00 47 1049.1
20260501192008 57 337 0.0 0.0 0.00 0.00 0.00 46 1068.9
20260501191508 57 315 0.0 0.0 0.00 0.00 0.00 45 1081.5
20260501191008 58 315 0.0 0.0 0.00 0.00 0.00 45 1068.9
20260501190907 58 315 0.0 0.0 0.00 0.00 0.00 44 1090.9
20260501190508 58 315 0.0 0.0 0.00 0.00 0.00 44 1090.9
20260501190008 59 315 0.0 0.0 0.00 0.00 0.00 43 1078.4
20260501185508 59 315 0.0 0.0 0.00 0.00 0.00 42 1033.4
20260501185008 60 22 0.0 0.9 0.00 0.00 0.00 42 1075.2
20260501184508 60 22 0.0 0.9 0.00 0.00 0.00 42 1075.3
20260501184008 61 22 0.9 1.7 0.00 0.00 0.00 41 1033.4
20260501183607 61 45 0.0 2.6 0.00 0.00 0.00 41 997.9
20260501183508 61 22 1.7 2.6 0.00 0.00 0.00 41 1069.0
20260501183008 61 45 0.9 1.7 0.00 0.00 0.00 40 1068.9
20260501182508 62 22 0.9 0.9 0.00 0.00 0.00 40 1090.9
20260501182008 62 45 1.7 1.7 0.00 0.00 0.00 39 1081.5
20260501181508 63 45 0.0 1.7 0.00 0.00 0.00 38 1075.2
20260501181008 64 22 0.9 3.5 0.00 0.00 0.00 38 1046.9
20260501180508 64 22 1.7 3.5 0.00 0.00 0.00 37 1087.8
20260501180307 64 22 0.9 3.5 0.00 0.00 0.00 37 1072.1